カタログに戻る

STARLINK-3621

運用中通信VLEO
NORAD 51769·PAYLOAD·🇺🇸 United States

打ち上げ Feb 25, 2022 から Vandenberg Space Force Base

Loading…

次のパス (今後24時間)

TLE

最新Source: CelesTrak SupGP

元期: Sep 14, 2026, 20:52 UTC

1 51769C 22017B   26257.86993056  .00019770  00000+0  11721-2 0  2572
2 51769  53.2154 208.6792 0001599  79.2474 214.9781 15.10866410    16

AllMySatでSTARLINK-3621をリアルタイム追跡

Download on the App Store